Погода в Шипаково

Россия / Тюменская область     56°50′54″N   67°38′18″E
темп.,
°C
ветер,
м/с
пор.,
м/с
влажн.,
%
обл.,
%
осадки,
мм/ч
давл.,
гПа
погр.,
м
14 апреля, ср
ср1423:00+5юз39905 0.0 1035151
02:00+5юз5138794 0.0 1033238
05:00+6юз51593100 0.0 1032357
08:00+7зюз6149492 0.0 1030394
11:00+12з712815 0.0 1029569
14:00+16з69695 0.0 1028905
17:00+17з597011 0.0 1027746
20:00+12зюз378776 0.0 1027112
15 апреля, чт
чт1523:00+11зюз310915 0.0 1026180
02:00+9з379435 0.0 1026120
05:00+8з37945 0.0 1026111
08:00+10зюз49865 0.0 1025261
11:00+15зюз587017 0.0 1023633
14:00+18зюз68655 0.0 10211121
17:00+18зюз610585 0.0 10191186
20:00+13юз49775 0.0 1018174
16 апреля, пт
пт1623:00+11зюз412785 0.0 1017222
02:00+9зюз41080100 0.0 1016192
05:00+8зсз4118592 0.0 1016260
08:00+6с6988100 0.0 1019659
11:00+4ссв488991 0.1 1022721
14:00+8ссв674697 0.1 10231664
17:00+6ссв6652100 0.1 10251327
20:00+3св48584 0.0 1026241
17 апреля, сб
сб1723:000св37691 0.0 1026173
02:00−1вюв25750 0.0 1025143
05:00−1ю25795 0.0 1024149
08:00+3зюз47635 0.0 1022417
11:00+7з694915 0.0 10191672
14:00+8зсз71045100 0.0 10172298
17:00+7сз6104699 0.2 10182306
20:00+3ссв3751100 0.0 1019231
18 апреля, вс
вс1823:00+1ю1154100 0.0 101810
02:00+1ююз3861100 0.1 1016224
05:000юз51189100 0.4 1013650
08:00+1сз596811 0.3 1013838
11:00+3сз5655100 0.4 10131488
14:00+3ссз5751100 0.4 10141641
17:00−2ссв91376100 1.1 10201192
20:00−4с812525 0.0 10241417